#datetime,building,power
2023-08-19T00:00:00,pth,1.20
2023-08-19T00:02:00,pth,2.40
2023-08-19T00:04:00,pth,1.20
2023-08-19T00:06:00,pth,2.40
2023-08-19T00:08:00,pth,1.20
2023-08-19T00:09:00,pth,1.20
2023-08-19T00:11:00,pth,1.20
2023-08-19T00:12:00,pth,1.20
2023-08-19T00:14:00,pth,2.40
2023-08-19T00:17:00,pth,2.40
2023-08-19T00:19:00,pth,1.20
2023-08-19T00:20:00,pth,1.20
2023-08-19T00:21:00,pth,1.20
2023-08-19T00:23:00,pth,1.20
2023-08-19T00:24:00,pth,1.20
2023-08-19T00:26:00,pth,1.20
2023-08-19T00:28:00,pth,2.40
2023-08-19T00:29:00,pth,1.20
2023-08-19T00:31:00,pth,1.20
2023-08-19T00:32:00,pth,1.20
2023-08-19T00:34:00,pth,1.20
2023-08-19T00:35:00,pth,1.20
2023-08-19T00:36:00,pth,1.20
2023-08-19T00:38:00,pth,1.20
2023-08-19T00:40:00,pth,2.40
2023-08-19T00:42:00,pth,1.20
2023-08-19T00:43:00,pth,1.20
2023-08-19T00:45:00,pth,1.20
2023-08-19T00:46:00,pth,1.20
2023-08-19T00:48:00,pth,1.20
2023-08-19T00:49:00,pth,1.20
2023-08-19T00:51:00,pth,2.40
2023-08-19T00:53:00,pth,1.20
2023-08-19T00:55:00,pth,2.40
2023-08-19T00:56:00,pth,1.20
2023-08-19T00:58:00,pth,1.20
2023-08-19T01:00:00,pth,2.40
2023-08-19T01:02:00,pth,1.20
2023-08-19T01:04:00,pth,2.40
2023-08-19T01:06:00,pth,1.20
2023-08-19T01:07:00,pth,1.20
2023-08-19T01:09:00,pth,1.20
2023-08-19T01:10:00,pth,1.20
2023-08-19T01:11:00,pth,1.20
2023-08-19T01:13:00,pth,1.20
2023-08-19T01:14:00,pth,1.20
2023-08-19T01:16:00,pth,1.20
2023-08-19T01:17:00,pth,1.20
2023-08-19T01:19:00,pth,1.20
2023-08-19T01:20:00,pth,1.20
2023-08-19T01:21:00,pth,1.20
2023-08-19T01:23:00,pth,1.20
2023-08-19T01:25:00,pth,2.40
2023-08-19T01:27:00,pth,1.20
2023-08-19T01:29:00,pth,2.40
2023-08-19T01:31:00,pth,1.20
2023-08-19T01:32:00,pth,1.20
2023-08-19T01:34:00,pth,1.20
2023-08-19T01:35:00,pth,1.20
2023-08-19T01:37:00,pth,2.40
2023-08-19T01:38:00,pth,1.20
2023-08-19T01:41:00,pth,2.40
2023-08-19T01:42:00,pth,1.20
2023-08-19T01:44:00,pth,2.40
2023-08-19T01:46:00,pth,2.40
2023-08-19T01:47:00,pth,1.20
2023-08-19T01:49:00,pth,2.40
2023-08-19T01:51:00,pth,2.40
2023-08-19T01:53:00,pth,2.40
2023-08-19T01:54:00,pth,1.20
2023-08-19T01:56:00,pth,2.40
2023-08-19T01:59:00,pth,2.40
2023-08-19T02:01:00,pth,1.20
2023-08-19T02:03:00,pth,1.20
2023-08-19T02:05:00,pth,2.40
2023-08-19T02:07:00,pth,1.20
2023-08-19T02:09:00,pth,2.40
2023-08-19T02:11:00,pth,1.20
2023-08-19T02:13:00,pth,2.40
2023-08-19T02:15:00,pth,1.20
2023-08-19T02:16:00,pth,1.20
2023-08-19T02:18:00,pth,1.20
2023-08-19T02:19:00,pth,1.20
2023-08-19T02:21:00,pth,2.40
2023-08-19T02:24:00,pth,2.40
2023-08-19T02:26:00,pth,1.20
2023-08-19T02:28:00,pth,2.40
2023-08-19T02:29:00,pth,1.20
2023-08-19T02:31:00,pth,1.20
2023-08-19T02:32:00,pth,1.20
2023-08-19T02:34:00,pth,1.20
2023-08-19T02:36:00,pth,2.40
2023-08-19T02:38:00,pth,2.40
2023-08-19T02:40:00,pth,1.20
2023-08-19T02:41:00,pth,1.20
2023-08-19T02:43:00,pth,1.20
2023-08-19T02:44:00,pth,1.20
2023-08-19T02:46:00,pth,1.20
2023-08-19T02:48:00,pth,2.40
2023-08-19T02:50:00,pth,1.20
2023-08-19T02:52:00,pth,2.40
2023-08-19T02:53:00,pth,1.20
2023-08-19T02:55:00,pth,1.20
2023-08-19T02:56:00,pth,1.20
2023-08-19T02:58:00,pth,1.20
2023-08-19T02:59:00,pth,1.20
2023-08-19T03:01:00,pth,1.20
2023-08-19T03:02:00,pth,1.20
2023-08-19T03:04:00,pth,2.40
2023-08-19T03:05:00,pth,1.20
2023-08-19T03:08:00,pth,2.40
2023-08-19T03:10:00,pth,1.20
2023-08-19T03:12:00,pth,2.40
2023-08-19T03:15:00,pth,2.40
2023-08-19T03:17:00,pth,1.20
2023-08-19T03:19:00,pth,2.40
2023-08-19T03:21:00,pth,1.20
2023-08-19T03:23:00,pth,2.40
2023-08-19T03:25:00,pth,2.40
2023-08-19T03:27:00,pth,1.20
2023-08-19T03:28:00,pth,1.20
2023-08-19T03:29:00,pth,1.20
2023-08-19T03:31:00,pth,1.20
2023-08-19T03:32:00,pth,1.20
2023-08-19T03:34:00,pth,1.20
2023-08-19T03:35:00,pth,1.20
2023-08-19T03:37:00,pth,1.20
2023-08-19T03:39:00,pth,2.40
2023-08-19T03:40:00,pth,1.20
2023-08-19T03:42:00,pth,1.20
2023-08-19T03:43:00,pth,1.20
2023-08-19T03:45:00,pth,1.20
2023-08-19T03:47:00,pth,2.40
2023-08-19T03:50:00,pth,2.40
2023-08-19T03:51:00,pth,1.20
2023-08-19T03:53:00,pth,1.20
2023-08-19T03:55:00,pth,2.40
2023-08-19T03:58:00,pth,2.40
2023-08-19T04:01:00,pth,2.40
2023-08-19T04:03:00,pth,1.20
2023-08-19T04:04:00,pth,1.20
2023-08-19T04:05:00,pth,1.20
2023-08-19T04:07:00,pth,1.20
2023-08-19T04:09:00,pth,2.40
2023-08-19T04:10:00,pth,1.20
2023-08-19T04:12:00,pth,1.20
2023-08-19T04:14:00,pth,2.40
2023-08-19T04:16:00,pth,1.20
2023-08-19T04:18:00,pth,2.40
2023-08-19T04:20:00,pth,1.20
2023-08-19T04:21:00,pth,1.20
2023-08-19T04:23:00,pth,2.40
2023-08-19T04:26:00,pth,2.40
2023-08-19T04:29:00,pth,2.40
2023-08-19T04:30:00,pth,1.20
2023-08-19T04:32:00,pth,1.20
2023-08-19T04:34:00,pth,1.20
2023-08-19T04:36:00,pth,2.40
2023-08-19T04:38:00,pth,1.20
2023-08-19T04:40:00,pth,2.40
2023-08-19T04:42:00,pth,1.20
2023-08-19T04:43:00,pth,1.20
2023-08-19T04:44:00,pth,1.20
2023-08-19T04:46:00,pth,1.20
2023-08-19T04:47:00,pth,1.20
2023-08-19T04:49:00,pth,1.20
2023-08-19T04:51:00,pth,2.40
2023-08-19T04:52:00,pth,1.20
2023-08-19T04:54:00,pth,1.20
2023-08-19T04:56:00,pth,2.40
2023-08-19T04:58:00,pth,1.20
2023-08-19T04:59:00,pth,1.20
2023-08-19T05:01:00,pth,1.20
2023-08-19T05:02:00,pth,1.20
2023-08-19T05:04:00,pth,2.40
2023-08-19T05:07:00,pth,2.40
2023-08-19T05:08:00,pth,1.20
2023-08-19T05:11:00,pth,2.40
2023-08-19T05:12:00,pth,1.20
2023-08-19T05:15:00,pth,2.40
2023-08-19T05:17:00,pth,1.20
2023-08-19T05:19:00,pth,2.40
2023-08-19T05:22:00,pth,2.40
2023-08-19T05:23:00,pth,1.20
2023-08-19T05:25:00,pth,1.20
2023-08-19T05:26:00,pth,1.20
2023-08-19T05:28:00,pth,1.20
2023-08-19T05:29:00,pth,1.20
2023-08-19T05:31:00,pth,1.20
2023-08-19T05:32:00,pth,1.20
2023-08-19T05:34:00,pth,2.40
2023-08-19T05:36:00,pth,1.20
2023-08-19T05:38:00,pth,2.40
2023-08-19T05:40:00,pth,1.20
2023-08-19T05:42:00,pth,1.20
2023-08-19T05:43:00,pth,1.20
2023-08-19T05:45:00,pth,2.40
2023-08-19T05:47:00,pth,1.20
2023-08-19T05:49:00,pth,2.40
2023-08-19T05:51:00,pth,1.20
2023-08-19T05:53:00,pth,2.40
2023-08-19T05:56:00,pth,2.40
2023-08-19T05:58:00,pth,1.20
2023-08-19T05:59:00,pth,1.20
2023-08-19T06:00:00,pth,1.20
2023-08-19T06:02:00,pth,1.20
2023-08-19T06:03:00,pth,1.20
2023-08-19T06:05:00,pth,2.40
2023-08-19T06:07:00,pth,1.20
2023-08-19T06:09:00,pth,2.40
2023-08-19T06:11:00,pth,1.20
2023-08-19T06:12:00,pth,1.20
2023-08-19T06:14:00,pth,1.20
2023-08-19T06:15:00,pth,1.20
2023-08-19T06:17:00,pth,1.20
2023-08-19T06:18:00,pth,1.20
2023-08-19T06:20:00,pth,1.20
2023-08-19T06:21:00,pth,1.20
2023-08-19T06:23:00,pth,2.40
2023-08-19T06:24:00,pth,1.20
2023-08-19T06:26:00,pth,1.20
2023-08-19T06:28:00,pth,1.20
2023-08-19T06:30:00,pth,2.40
2023-08-19T06:31:00,pth,1.20
2023-08-19T06:34:00,pth,2.40
2023-08-19T06:36:00,pth,1.20
2023-08-19T06:37:00,pth,1.20
2023-08-19T06:38:00,pth,1.20
2023-08-19T06:40:00,pth,1.20
2023-08-19T06:42:00,pth,2.40
2023-08-19T06:44:00,pth,1.20
2023-08-19T06:46:00,pth,2.40
2023-08-19T06:48:00,pth,1.20
2023-08-19T06:50:00,pth,1.20
2023-08-19T06:52:00,pth,1.20
2023-08-19T06:53:00,pth,1.20
2023-08-19T06:55:00,pth,1.20
2023-08-19T06:57:00,pth,1.20
2023-08-19T06:59:00,pth,1.20
2023-08-19T07:01:00,pth,4.80
2023-08-19T07:03:00,pth,1.20
2023-08-19T07:04:00,pth,1.20
2023-08-19T07:06:00,pth,2.40
2023-08-19T07:08:00,pth,3.60
2023-08-19T07:09:00,pth,1.20
2023-08-19T07:11:00,pth,1.20
2023-08-19T07:13:00,pth,1.20
2023-08-19T07:14:00,pth,1.20
2023-08-19T07:16:00,pth,1.20
2023-08-19T07:17:00,pth,1.20
2023-08-19T07:19:00,pth,1.20
2023-08-19T07:21:00,pth,1.20
2023-08-19T07:22:00,pth,1.20
2023-08-19T07:24:00,pth,1.20
2023-08-19T07:26:00,pth,1.20
2023-08-19T07:27:00,pth,1.20
2023-08-19T07:29:00,pth,1.20
2023-08-19T07:30:00,pth,1.20
2023-08-19T07:32:00,pth,1.20
2023-08-19T07:34:00,pth,1.20
2023-08-19T07:35:00,pth,1.20
2023-08-19T07:37:00,pth,1.20
2023-08-19T07:40:00,pth,2.40
2023-08-19T07:43:00,pth,1.20
2023-08-19T07:45:00,pth,1.20
2023-08-19T07:47:00,pth,2.40
2023-08-19T07:49:00,pth,1.20
2023-08-19T07:52:00,pth,2.40
2023-08-19T07:55:00,pth,1.20
2023-08-19T07:57:00,pth,1.20
2023-08-19T07:58:00,pth,1.20
2023-08-19T08:00:00,pth,1.20
2023-08-19T08:01:00,pth,1.20
2023-08-19T08:03:00,pth,1.20
2023-08-19T08:05:00,pth,1.20
2023-08-19T08:07:00,pth,1.20
2023-08-19T08:10:00,pth,1.20
2023-08-19T08:12:00,pth,1.20
2023-08-19T08:14:00,pth,1.20
2023-08-19T08:15:00,pth,1.20
2023-08-19T08:17:00,pth,4.80
2023-08-19T08:18:00,pth,1.20
2023-08-19T08:20:00,pth,3.60
2023-08-19T08:21:00,pth,1.20
2023-08-19T08:23:00,pth,2.40
2023-08-19T08:25:00,pth,3.60
2023-08-19T08:27:00,pth,2.40
2023-08-19T08:29:00,pth,3.60
2023-08-19T08:31:00,pth,2.40
2023-08-19T08:32:00,pth,1.20
2023-08-19T08:34:00,pth,2.40
2023-08-19T08:35:00,pth,1.20
2023-08-19T08:36:00,pth,1.20
2023-08-19T08:38:00,pth,3.60
2023-08-19T08:39:00,pth,1.20
2023-08-19T08:41:00,pth,2.40
2023-08-19T08:43:00,pth,3.60
2023-08-19T08:44:00,pth,1.20
2023-08-19T08:46:00,pth,1.20
2023-08-19T08:48:00,pth,1.20
2023-08-19T08:49:00,pth,1.20
2023-08-19T08:51:00,pth,1.20
2023-08-19T08:53:00,pth,1.20
2023-08-19T08:55:00,pth,2.40
2023-08-19T08:56:00,pth,1.20
2023-08-19T08:58:00,pth,2.40
2023-08-19T09:00:00,pth,2.40
2023-08-19T09:02:00,pth,2.40
2023-08-19T09:03:00,pth,1.20
2023-08-19T09:05:00,pth,2.40
2023-08-19T09:07:00,pth,2.40
2023-08-19T09:09:00,pth,1.20
2023-08-19T09:11:00,pth,1.20
2023-08-19T09:12:00,pth,1.20
2023-08-19T09:14:00,pth,2.40
2023-08-19T09:15:00,pth,1.20
2023-08-19T09:17:00,pth,2.40
2023-08-19T09:19:00,pth,4.80
2023-08-19T09:21:00,pth,12.00
2023-08-19T09:22:00,pth,6.00
2023-08-19T09:24:00,pth,13.20
2023-08-19T09:25:00,pth,6.00
2023-08-19T09:26:00,pth,6.00
2023-08-19T09:28:00,pth,13.20
2023-08-19T09:30:00,pth,13.20
2023-08-19T09:32:00,pth,12.00
2023-08-19T09:34:00,pth,13.20
2023-08-19T09:36:00,pth,13.20
2023-08-19T09:37:00,pth,6.00
2023-08-19T09:39:00,pth,13.20
2023-08-19T09:41:00,pth,8.40
2023-08-19T09:43:00,pth,10.80
2023-08-19T09:44:00,pth,6.00
2023-08-19T09:46:00,pth,7.20
2023-08-19T09:48:00,pth,6.00
2023-08-19T09:50:00,pth,10.80
2023-08-19T09:52:00,pth,8.40
2023-08-19T09:54:00,pth,6.00
2023-08-19T09:56:00,pth,8.40
2023-08-19T09:58:00,pth,9.60
2023-08-19T09:59:00,pth,2.40
2023-08-19T10:01:00,pth,8.40
2023-08-19T10:02:00,pth,2.40
2023-08-19T10:04:00,pth,8.40
2023-08-19T10:05:00,pth,2.40
2023-08-19T10:07:00,pth,9.60
2023-08-19T10:09:00,pth,4.80
2023-08-19T10:10:00,pth,6.00
2023-08-19T10:12:00,pth,6.00
2023-08-19T10:13:00,pth,4.80
2023-08-19T10:14:00,pth,1.20
2023-08-19T10:16:00,pth,8.40
2023-08-19T10:18:00,pth,2.40
2023-08-19T10:21:00,pth,1.20
2023-08-19T10:23:00,pth,1.20
2023-08-19T10:25:00,pth,1.20
2023-08-19T10:27:00,pth,2.40
2023-08-19T10:30:00,pth,1.20
2023-08-19T10:32:00,pth,1.20
2023-08-19T10:34:00,pth,2.40
2023-08-19T10:36:00,pth,1.20
2023-08-19T10:38:00,pth,1.20
2023-08-19T10:40:00,pth,1.20
2023-08-19T10:41:00,pth,1.20
2023-08-19T10:43:00,pth,1.20
2023-08-19T10:45:00,pth,1.20
2023-08-19T10:48:00,pth,1.20
2023-08-19T10:50:00,pth,1.20
2023-08-19T10:52:00,pth,2.40
2023-08-19T10:54:00,pth,1.20
2023-08-19T10:56:00,pth,1.20
2023-08-19T10:58:00,pth,1.20
2023-08-19T11:00:00,pth,1.20
2023-08-19T11:01:00,pth,1.20
2023-08-19T11:03:00,pth,1.20
2023-08-19T11:05:00,pth,1.20
2023-08-19T11:07:00,pth,1.20
2023-08-19T11:08:00,pth,1.20
2023-08-19T11:10:00,pth,1.20
2023-08-19T11:12:00,pth,1.20
2023-08-19T11:14:00,pth,1.20
2023-08-19T11:16:00,pth,1.20
2023-08-19T11:18:00,pth,8.40
2023-08-19T11:20:00,pth,12.00
2023-08-19T11:22:00,pth,12.00
2023-08-19T11:23:00,pth,4.80
2023-08-19T11:25:00,pth,10.80
2023-08-19T11:26:00,pth,2.40
2023-08-19T11:27:00,pth,6.00
2023-08-19T11:29:00,pth,8.40
2023-08-19T11:30:00,pth,3.60
2023-08-19T11:32:00,pth,8.40
2023-08-19T11:34:00,pth,8.40
2023-08-19T11:36:00,pth,8.40
2023-08-19T11:38:00,pth,8.40
2023-08-19T11:39:00,pth,4.80
2023-08-19T11:41:00,pth,8.40
2023-08-19T11:42:00,pth,3.60
2023-08-19T11:44:00,pth,7.20
2023-08-19T11:46:00,pth,7.20
2023-08-19T11:48:00,pth,7.20
2023-08-19T11:49:00,pth,6.00
2023-08-19T11:51:00,pth,7.20
2023-08-19T11:53:00,pth,7.20
2023-08-19T11:55:00,pth,8.40
2023-08-19T11:57:00,pth,7.20
2023-08-19T11:59:00,pth,7.20
2023-08-19T12:01:00,pth,7.20
2023-08-19T12:03:00,pth,8.40
2023-08-19T12:04:00,pth,1.20
2023-08-19T12:05:00,pth,4.80
2023-08-19T12:07:00,pth,8.40
2023-08-19T12:09:00,pth,7.20
2023-08-19T12:10:00,pth,2.40
2023-08-19T12:12:00,pth,7.20
2023-08-19T12:14:00,pth,6.00
2023-08-19T12:16:00,pth,2.40
2023-08-19T12:18:00,pth,2.40
2023-08-19T12:20:00,pth,2.40
2023-08-19T12:22:00,pth,1.20
2023-08-19T12:24:00,pth,1.20
2023-08-19T12:26:00,pth,1.20
2023-08-19T12:28:00,pth,3.60
2023-08-19T12:29:00,pth,1.20
2023-08-19T12:31:00,pth,1.20
2023-08-19T12:33:00,pth,1.20
2023-08-19T12:34:00,pth,1.20
2023-08-19T12:36:00,pth,1.20
2023-08-19T12:38:00,pth,1.20
2023-08-19T12:41:00,pth,1.20
2023-08-19T12:43:00,pth,1.20
2023-08-19T12:45:00,pth,1.20
2023-08-19T12:46:00,pth,1.20
2023-08-19T12:48:00,pth,1.20
2023-08-19T12:51:00,pth,1.20
2023-08-19T12:52:00,pth,1.20
2023-08-19T12:55:00,pth,1.20
2023-08-19T12:57:00,pth,1.20
2023-08-19T13:00:00,pth,1.20
2023-08-19T13:02:00,pth,1.20
2023-08-19T13:04:00,pth,2.40
2023-08-19T13:06:00,pth,1.20
2023-08-19T13:08:00,pth,1.20
2023-08-19T13:10:00,pth,1.20
2023-08-19T13:13:00,pth,1.20
2023-08-19T13:15:00,pth,1.20
2023-08-19T13:17:00,pth,1.20
2023-08-19T13:19:00,pth,1.20
2023-08-19T13:20:00,pth,1.20
2023-08-19T13:23:00,pth,1.20
2023-08-19T13:25:00,pth,1.20
2023-08-19T13:26:00,pth,1.20
2023-08-19T13:28:00,pth,1.20
2023-08-19T13:29:00,pth,1.20
2023-08-19T13:31:00,pth,1.20
2023-08-19T13:34:00,pth,1.20
2023-08-19T13:36:00,pth,1.20
2023-08-19T13:37:00,pth,1.20
2023-08-19T13:39:00,pth,1.20
2023-08-19T13:42:00,pth,1.20
2023-08-19T13:43:00,pth,1.20
2023-08-19T13:44:00,pth,1.20
2023-08-19T13:46:00,pth,1.20
2023-08-19T13:48:00,pth,2.40
2023-08-19T13:50:00,pth,1.20
2023-08-19T13:52:00,pth,2.40
2023-08-19T13:54:00,pth,1.20
2023-08-19T13:56:00,pth,1.20
2023-08-19T13:58:00,pth,1.20
2023-08-19T14:00:00,pth,1.20
2023-08-19T14:01:00,pth,1.20
2023-08-19T14:03:00,pth,1.20
2023-08-19T14:06:00,pth,1.20
2023-08-19T14:08:00,pth,1.20
2023-08-19T14:11:00,pth,2.40
2023-08-19T14:14:00,pth,1.20
2023-08-19T14:16:00,pth,1.20
2023-08-19T14:17:00,pth,1.20
2023-08-19T14:19:00,pth,1.20
2023-08-19T14:21:00,pth,1.20
2023-08-19T14:23:00,pth,1.20
2023-08-19T14:25:00,pth,1.20
2023-08-19T14:27:00,pth,1.20
2023-08-19T14:30:00,pth,2.40
2023-08-19T14:34:00,pth,1.20
2023-08-19T14:35:00,pth,1.20
2023-08-19T14:37:00,pth,1.20
2023-08-19T14:38:00,pth,1.20
2023-08-19T14:41:00,pth,1.20
2023-08-19T14:43:00,pth,1.20
2023-08-19T14:45:00,pth,1.20
2023-08-19T14:47:00,pth,1.20
2023-08-19T14:50:00,pth,2.40
2023-08-19T14:52:00,pth,1.20
2023-08-19T14:55:00,pth,1.20
2023-08-19T14:56:00,pth,1.20
2023-08-19T14:58:00,pth,1.20
2023-08-19T15:01:00,pth,1.20
2023-08-19T15:03:00,pth,1.20
2023-08-19T15:05:00,pth,1.20
2023-08-19T15:07:00,pth,1.20
2023-08-19T15:08:00,pth,1.20
2023-08-19T15:10:00,pth,1.20
2023-08-19T15:12:00,pth,1.20
2023-08-19T15:14:00,pth,1.20
2023-08-19T15:16:00,pth,1.20
2023-08-19T15:19:00,pth,1.20
2023-08-19T15:21:00,pth,1.20
2023-08-19T15:23:00,pth,1.20
2023-08-19T15:24:00,pth,1.20
2023-08-19T15:26:00,pth,1.20
2023-08-19T15:28:00,pth,1.20
2023-08-19T15:31:00,pth,1.20
2023-08-19T15:33:00,pth,1.20
2023-08-19T15:35:00,pth,1.20
2023-08-19T15:37:00,pth,1.20
2023-08-19T15:40:00,pth,1.20
2023-08-19T15:41:00,pth,1.20
2023-08-19T15:43:00,pth,1.20
2023-08-19T15:45:00,pth,1.20
2023-08-19T15:47:00,pth,1.20
2023-08-19T15:50:00,pth,1.20
2023-08-19T15:52:00,pth,1.20
2023-08-19T15:54:00,pth,1.20
2023-08-19T15:56:00,pth,1.20
2023-08-19T15:57:00,pth,1.20
2023-08-19T15:59:00,pth,1.20
2023-08-19T16:01:00,pth,1.20
2023-08-19T16:04:00,pth,1.20
2023-08-19T16:05:00,pth,1.20
2023-08-19T16:08:00,pth,1.20
2023-08-19T16:10:00,pth,1.20
2023-08-19T16:12:00,pth,1.20
2023-08-19T16:14:00,pth,1.20
2023-08-19T16:16:00,pth,1.20
2023-08-19T16:19:00,pth,1.20
2023-08-19T16:21:00,pth,1.20
2023-08-19T16:23:00,pth,1.20
2023-08-19T16:25:00,pth,1.20
2023-08-19T16:27:00,pth,1.20
2023-08-19T16:29:00,pth,1.20
2023-08-19T16:32:00,pth,1.20
2023-08-19T16:34:00,pth,1.20
2023-08-19T16:36:00,pth,1.20
2023-08-19T16:39:00,pth,1.20
2023-08-19T16:42:00,pth,1.20
2023-08-19T16:43:00,pth,1.20
2023-08-19T16:46:00,pth,1.20
2023-08-19T16:48:00,pth,1.20
2023-08-19T16:50:00,pth,1.20
2023-08-19T16:53:00,pth,1.20
2023-08-19T16:56:00,pth,1.20
2023-08-19T16:59:00,pth,1.20
2023-08-19T17:00:00,pth,1.20
2023-08-19T17:03:00,pth,1.20
2023-08-19T17:06:00,pth,1.20
2023-08-19T17:08:00,pth,1.20
2023-08-19T17:10:00,pth,1.20
2023-08-19T17:14:00,pth,1.20
2023-08-19T17:16:00,pth,1.20
2023-08-19T17:18:00,pth,1.20
2023-08-19T17:20:00,pth,1.20
2023-08-19T17:24:00,pth,1.20
2023-08-19T17:26:00,pth,1.20
2023-08-19T17:28:00,pth,1.20
2023-08-19T17:30:00,pth,1.20
2023-08-19T17:34:00,pth,1.20
2023-08-19T17:36:00,pth,1.20
2023-08-19T17:38:00,pth,1.20
2023-08-19T17:40:00,pth,1.20
2023-08-19T17:41:00,pth,1.20
2023-08-19T17:43:00,pth,1.20
2023-08-19T17:45:00,pth,1.20
2023-08-19T17:48:00,pth,1.20
2023-08-19T17:49:00,pth,1.20
2023-08-19T17:51:00,pth,1.20
2023-08-19T17:53:00,pth,1.20
2023-08-19T17:56:00,pth,1.20
2023-08-19T17:58:00,pth,1.20
2023-08-19T18:00:00,pth,1.20
2023-08-19T18:02:00,pth,1.20
2023-08-19T18:04:00,pth,1.20
2023-08-19T18:06:00,pth,1.20
2023-08-19T18:08:00,pth,1.20
2023-08-19T18:10:00,pth,1.20
2023-08-19T18:13:00,pth,1.20
2023-08-19T18:14:00,pth,1.20
2023-08-19T18:16:00,pth,1.20
2023-08-19T18:18:00,pth,1.20
2023-08-19T18:21:00,pth,1.20
2023-08-19T18:23:00,pth,1.20
2023-08-19T18:25:00,pth,1.20
2023-08-19T18:26:00,pth,1.20
2023-08-19T18:28:00,pth,1.20
2023-08-19T18:30:00,pth,1.20
2023-08-19T18:32:00,pth,1.20
2023-08-19T18:35:00,pth,1.20
2023-08-19T18:37:00,pth,1.20
2023-08-19T18:39:00,pth,1.20
2023-08-19T18:41:00,pth,1.20
2023-08-19T18:43:00,pth,1.20
2023-08-19T18:46:00,pth,1.20
2023-08-19T18:48:00,pth,1.20
2023-08-19T18:49:00,pth,1.20
2023-08-19T18:51:00,pth,1.20
2023-08-19T18:53:00,pth,1.20
2023-08-19T18:56:00,pth,1.20
2023-08-19T18:58:00,pth,1.20
2023-08-19T19:00:00,pth,1.20
2023-08-19T19:03:00,pth,1.20
2023-08-19T19:04:00,pth,1.20
2023-08-19T19:06:00,pth,1.20
2023-08-19T19:09:00,pth,1.20
2023-08-19T19:11:00,pth,1.20
2023-08-19T19:12:00,pth,1.20
2023-08-19T19:14:00,pth,1.20
2023-08-19T19:17:00,pth,1.20
2023-08-19T19:18:00,pth,1.20
2023-08-19T19:20:00,pth,1.20
2023-08-19T19:22:00,pth,2.40
2023-08-19T19:24:00,pth,1.20
2023-08-19T19:26:00,pth,1.20
2023-08-19T19:27:00,pth,1.20
2023-08-19T19:28:00,pth,1.20
2023-08-19T19:30:00,pth,1.20
2023-08-19T19:31:00,pth,1.20
2023-08-19T19:34:00,pth,2.40
2023-08-19T19:36:00,pth,1.20
2023-08-19T19:38:00,pth,1.20
2023-08-19T19:39:00,pth,1.20
2023-08-19T19:41:00,pth,1.20
2023-08-19T19:43:00,pth,1.20
2023-08-19T19:45:00,pth,1.20
2023-08-19T19:46:00,pth,1.20
2023-08-19T19:48:00,pth,1.20
2023-08-19T19:49:00,pth,1.20
2023-08-19T19:51:00,pth,1.20
2023-08-19T19:53:00,pth,1.20
2023-08-19T19:54:00,pth,1.20
2023-08-19T19:56:00,pth,1.20
2023-08-19T19:59:00,pth,2.40
2023-08-19T20:02:00,pth,2.40
2023-08-19T20:04:00,pth,1.20
2023-08-19T20:06:00,pth,1.20
2023-08-19T20:07:00,pth,1.20
2023-08-19T20:09:00,pth,1.20
2023-08-19T20:10:00,pth,1.20
2023-08-19T20:12:00,pth,1.20
2023-08-19T20:13:00,pth,1.20
2023-08-19T20:15:00,pth,1.20
2023-08-19T20:18:00,pth,2.40
2023-08-19T20:20:00,pth,1.20
2023-08-19T20:23:00,pth,1.20
2023-08-19T20:24:00,pth,1.20
2023-08-19T20:26:00,pth,1.20
2023-08-19T20:28:00,pth,2.40
2023-08-19T20:30:00,pth,1.20
2023-08-19T20:32:00,pth,1.20
2023-08-19T20:34:00,pth,1.20
2023-08-19T20:36:00,pth,2.40
2023-08-19T20:39:00,pth,2.40
2023-08-19T20:41:00,pth,1.20
2023-08-19T20:43:00,pth,1.20
2023-08-19T20:45:00,pth,2.40
2023-08-19T20:47:00,pth,1.20
2023-08-19T20:49:00,pth,2.40
2023-08-19T20:52:00,pth,2.40
2023-08-19T20:55:00,pth,2.40
2023-08-19T20:57:00,pth,1.20
2023-08-19T20:58:00,pth,1.20
2023-08-19T21:00:00,pth,1.20
2023-08-19T21:01:00,pth,1.20
2023-08-19T21:02:00,pth,1.20
2023-08-19T21:04:00,pth,1.20
2023-08-19T21:05:00,pth,1.20
2023-08-19T21:07:00,pth,1.20
2023-08-19T21:08:00,pth,1.20
2023-08-19T21:10:00,pth,1.20
2023-08-19T21:12:00,pth,2.40
2023-08-19T21:14:00,pth,1.20
2023-08-19T21:16:00,pth,1.20
2023-08-19T21:17:00,pth,1.20
2023-08-19T21:19:00,pth,1.20
2023-08-19T21:21:00,pth,2.40
2023-08-19T21:23:00,pth,1.20
2023-08-19T21:24:00,pth,1.20
2023-08-19T21:26:00,pth,1.20
2023-08-19T21:27:00,pth,1.20
2023-08-19T21:30:00,pth,2.40
2023-08-19T21:32:00,pth,1.20
2023-08-19T21:34:00,pth,1.20
2023-08-19T21:35:00,pth,1.20
2023-08-19T21:37:00,pth,1.20
2023-08-19T21:38:00,pth,1.20
2023-08-19T21:40:00,pth,2.40
2023-08-19T21:42:00,pth,1.20
2023-08-19T21:44:00,pth,1.20
2023-08-19T21:46:00,pth,2.40
2023-08-19T21:47:00,pth,1.20
2023-08-19T21:50:00,pth,1.20
2023-08-19T21:51:00,pth,1.20
2023-08-19T21:53:00,pth,1.20
2023-08-19T21:55:00,pth,1.20
2023-08-19T21:56:00,pth,1.20
2023-08-19T21:58:00,pth,1.20
2023-08-19T22:00:00,pth,2.40
2023-08-19T22:02:00,pth,1.20
2023-08-19T22:04:00,pth,1.20
2023-08-19T22:07:00,pth,2.40
2023-08-19T22:10:00,pth,2.40
2023-08-19T22:12:00,pth,1.20
2023-08-19T22:14:00,pth,2.40
2023-08-19T22:15:00,pth,1.20
2023-08-19T22:17:00,pth,1.20
2023-08-19T22:19:00,pth,1.20
2023-08-19T22:20:00,pth,1.20
2023-08-19T22:22:00,pth,1.20
2023-08-19T22:23:00,pth,1.20
2023-08-19T22:25:00,pth,1.20
2023-08-19T22:27:00,pth,1.20
2023-08-19T22:29:00,pth,2.40
2023-08-19T22:31:00,pth,1.20
2023-08-19T22:33:00,pth,1.20
2023-08-19T22:34:00,pth,1.20
2023-08-19T22:37:00,pth,1.20
2023-08-19T22:38:00,pth,1.20
2023-08-19T22:40:00,pth,1.20
2023-08-19T22:42:00,pth,1.20
2023-08-19T22:44:00,pth,2.40
2023-08-19T22:47:00,pth,2.40
2023-08-19T22:50:00,pth,2.40
2023-08-19T22:53:00,pth,2.40
2023-08-19T22:55:00,pth,1.20
2023-08-19T22:57:00,pth,2.40
2023-08-19T22:59:00,pth,1.20
2023-08-19T23:01:00,pth,1.20
2023-08-19T23:02:00,pth,1.20
2023-08-19T23:03:00,pth,1.20
2023-08-19T23:06:00,pth,2.40
2023-08-19T23:09:00,pth,2.40
2023-08-19T23:12:00,pth,2.40
2023-08-19T23:14:00,pth,1.20
2023-08-19T23:16:00,pth,2.40
2023-08-19T23:18:00,pth,1.20
2023-08-19T23:20:00,pth,1.20
2023-08-19T23:22:00,pth,2.40
2023-08-19T23:23:00,pth,1.20
